TimeCDT,TemperatureF,Dew PointF,Humidity,Sea Level PressureIn,VisibilityMPH,Wind Direction,Wind SpeedMPH,Gust SpeedMPH,PrecipitationIn,Events,Conditions,WindDirDegrees,DateUTC
12:15 AM,74.7,73.8,97,29.83,10.0,South,6.9,-,N/A,,Clear,190,2013-09-09 05:15:00
12:35 AM,74.5,72.9,95,29.83,10.0,SSW,8.1,-,N/A,,Clear,200,2013-09-09 05:35:00
12:55 AM,75.4,70.9,86,29.82,10.0,SSW,8.1,-,N/A,,Clear,210,2013-09-09 05:55:00
1:15 AM,75.7,69.4,81,29.83,10.0,SSW,8.1,-,N/A,,Clear,210,2013-09-09 06:15:00
1:35 AM,75.7,67.8,76,29.83,10.0,SW,10.4,-,N/A,,Clear,220,2013-09-09 06:35:00
1:55 AM,76.6,66.2,70,29.83,10.0,SW,10.4,-,N/A,,Clear,220,2013-09-09 06:55:00
2:15 AM,76.6,65.3,68,29.83,10.0,SW,10.4,-,N/A,,Clear,220,2013-09-09 07:15:00
2:35 AM,75.6,65.1,70,29.83,10.0,SSW,10.4,-,N/A,,Clear,210,2013-09-09 07:35:00
2:55 AM,76.3,64.4,67,29.83,10.0,SSW,10.4,-,N/A,,Clear,210,2013-09-09 07:55:00
3:15 AM,77.9,63.5,61,29.83,10.0,SW,10.4,-,N/A,,Clear,230,2013-09-09 08:15:00
3:35 AM,78.1,63.0,60,29.83,10.0,SW,11.5,-,N/A,,Clear,230,2013-09-09 08:35:00
3:55 AM,78.3,62.4,58,29.83,10.0,SW,10.4,-,N/A,,Clear,230,2013-09-09 08:55:00
4:15 AM,77.9,61.9,58,29.83,10.0,SW,12.7,-,N/A,,Clear,230,2013-09-09 09:15:00
4:35 AM,77.4,61.9,59,29.83,10.0,SW,11.5,-,N/A,,Clear,230,2013-09-09 09:35:00
4:55 AM,77.0,61.7,59,29.84,10.0,SW,10.4,-,N/A,,Clear,230,2013-09-09 09:55:00
5:15 AM,76.3,61.9,61,29.84,10.0,SW,9.2,-,N/A,,Clear,230,2013-09-09 10:15:00
5:35 AM,75.7,61.9,62,29.84,10.0,SW,9.2,-,N/A,,Clear,230,2013-09-09 10:35:00
5:55 AM,76.3,61.7,60,29.84,10.0,SW,10.4,-,N/A,,Clear,230,2013-09-09 10:55:00
6:15 AM,75.0,61.7,63,29.84,10.0,SW,9.2,-,N/A,,Clear,230,2013-09-09 11:15:00
6:35 AM,73.9,61.9,66,29.85,10.0,SW,9.2,-,N/A,,Clear,220,2013-09-09 11:35:00
6:55 AM,72.7,62.2,70,29.85,10.0,SSW,9.2,-,N/A,,Clear,210,2013-09-09 11:55:00
7:15 AM,73.8,61.7,66,29.85,10.0,SW,10.4,-,N/A,,Clear,220,2013-09-09 12:15:00
7:35 AM,73.4,62.1,68,29.86,10.0,SSW,10.4,-,N/A,,Clear,210,2013-09-09 12:35:00
7:55 AM,73.8,62.6,68,29.86,10.0,SSW,9.2,-,N/A,,Clear,210,2013-09-09 12:55:00
8:15 AM,75.6,62.8,64,29.87,10.0,SW,8.1,-,N/A,,Clear,220,2013-09-09 13:15:00
8:35 AM,77.2,62.6,61,29.87,10.0,SW,9.2,-,N/A,,Clear,230,2013-09-09 13:35:00
8:55 AM,79.0,62.2,56,29.87,10.0,SW,10.4,-,N/A,,Clear,220,2013-09-09 13:55:00
9:15 AM,80.6,62.4,54,29.87,10.0,SW,8.1,-,N/A,,Clear,220,2013-09-09 14:15:00
9:35 AM,82.4,62.6,51,29.87,10.0,SW,8.1,-,N/A,,Clear,220,2013-09-09 14:35:00
9:55 AM,84.2,62.8,48,29.87,10.0,SW,8.1,-,N/A,,Clear,220,2013-09-09 14:55:00
10:15 AM,85.8,61.2,43,29.87,10.0,WSW,11.5,18.4,N/A,,Clear,240,2013-09-09 15:15:00
10:35 AM,86.9,61.3,42,29.87,10.0,WSW,11.5,18.4,N/A,,Clear,240,2013-09-09 15:35:00
10:55 AM,87.8,61.2,41,29.87,10.0,WSW,13.8,-,N/A,,Clear,240,2013-09-09 15:55:00
11:15 AM,89.2,61.9,40,29.87,10.0,SW,11.5,17.3,N/A,,Clear,230,2013-09-09 16:15:00
11:35 AM,90.5,61.5,38,29.87,10.0,SW,12.7,19.6,N/A,,Clear,230,2013-09-09 16:35:00
11:55 AM,91.6,62.1,37,29.87,10.0,SW,11.5,-,N/A,,Clear,220,2013-09-09 16:55:00
12:15 PM,92.3,61.3,35,29.86,10.0,SW,13.8,-,N/A,,Clear,220,2013-09-09 17:15:00
12:35 PM,93.0,61.3,35,29.86,10.0,SW,13.8,21.9,N/A,,Clear,220,2013-09-09 17:35:00
12:55 PM,94.1,60.4,32,29.86,10.0,SW,12.7,23.0,N/A,,Clear,230,2013-09-09 17:55:00
1:15 PM,95.0,60.1,31,29.85,10.0,SW,15.0,25.3,N/A,,Clear,220,2013-09-09 18:15:00
1:35 PM,95.0,59.2,30,29.84,10.0,SW,17.3,24.2,N/A,,Clear,220,2013-09-09 18:35:00
1:55 PM,95.5,58.3,29,29.85,10.0,SSW,17.3,26.5,N/A,,Clear,210,2013-09-09 18:55:00
2:15 PM,96.3,59.2,29,29.84,10.0,SSW,17.3,21.9,N/A,,Clear,210,2013-09-09 19:15:00
2:55 PM,96.6,55.8,25,29.84,10.0,SW,19.6,27.6,N/A,,Clear,220,2013-09-09 19:55:00
3:15 PM,96.8,57.2,27,29.83,10.0,SSW,17.3,28.8,N/A,,Clear,200,2013-09-09 20:15:00
3:35 PM,96.8,56.5,26,29.83,10.0,SSW,17.3,21.9,N/A,,Clear,210,2013-09-09 20:35:00
3:55 PM,96.6,56.8,26,29.83,10.0,SSW,21.9,26.5,N/A,,Clear,200,2013-09-09 20:55:00
4:15 PM,96.4,55.6,25,29.83,10.0,SW,21.9,25.3,N/A,,Clear,220,2013-09-09 21:15:00
4:35 PM,95.9,57.4,27,29.83,10.0,SSW,17.3,25.3,N/A,,Clear,210,2013-09-09 21:35:00
4:55 PM,96.6,57.9,27,29.83,10.0,SSW,19.6,25.3,N/A,,Clear,200,2013-09-09 21:55:00
5:15 PM,95.9,56.7,27,29.83,10.0,SSW,17.3,24.2,N/A,,Clear,210,2013-09-09 22:15:00
5:35 PM,94.6,57.6,29,29.83,10.0,SSW,12.7,25.3,N/A,,Clear,210,2013-09-09 22:35:00
5:55 PM,94.1,58.5,30,29.83,10.0,SSW,10.4,18.4,N/A,,Clear,210,2013-09-09 22:55:00
6:15 PM,92.8,58.8,32,29.83,10.0,SSW,11.5,17.3,N/A,,Clear,210,2013-09-09 23:15:00
6:35 PM,91.6,58.6,33,29.83,10.0,SSW,11.5,-,N/A,,Clear,210,2013-09-09 23:35:00
6:55 PM,89.8,59.2,36,29.83,10.0,SSW,8.1,-,N/A,,Clear,210,2013-09-09 23:55:00
7:15 PM,87.3,60.4,40,29.84,10.0,South,5.8,-,N/A,,Clear,190,2013-09-10 00:15:00
7:35 PM,84.9,61.7,45,29.84,10.0,South,5.8,-,N/A,,Clear,190,2013-09-10 00:35:00
7:55 PM,82.9,62.6,50,29.85,10.0,South,8.1,-,N/A,,Clear,180,2013-09-10 00:55:00
8:15 PM,81.1,62.6,53,29.85,10.0,South,9.2,-,N/A,,Clear,190,2013-09-10 01:15:00
8:35 PM,80.1,62.6,55,29.86,10.0,South,9.2,-,N/A,,Clear,180,2013-09-10 01:35:00
8:55 PM,79.7,62.6,56,29.87,10.0,South,9.2,-,N/A,,Clear,190,2013-09-10 01:55:00
9:15 PM,79.0,62.6,57,29.87,10.0,South,10.4,-,N/A,,Clear,190,2013-09-10 02:15:00
9:35 PM,79.7,61.7,54,29.87,10.0,SSW,10.4,-,N/A,,Clear,200,2013-09-10 02:35:00
9:55 PM,78.8,61.7,56,29.87,10.0,SSW,10.4,-,N/A,,Clear,200,2013-09-10 02:55:00
10:15 PM,78.3,61.2,56,29.88,10.0,SSW,10.4,-,N/A,,Clear,200,2013-09-10 03:15:00
10:35 PM,77.9,60.4,55,29.88,10.0,SSW,11.5,-,N/A,,Clear,200,2013-09-10 03:35:00
10:55 PM,76.8,59.7,55,29.88,10.0,South,12.7,-,N/A,,Clear,190,2013-09-10 03:55:00
11:15 PM,77.5,58.5,52,29.89,10.0,SSW,12.7,-,N/A,,Clear,200,2013-09-10 04:15:00
11:35 PM,76.5,58.1,53,29.89,10.0,SSW,10.4,-,N/A,,Clear,200,2013-09-10 04:35:00
11:55 PM,75.4,58.1,55,29.89,10.0,SSW,10.4,-,N/A,,Clear,200,2013-09-10 04:55:00